Regional Weather Roundup
Issued by NWS

Home | Current Version | Previous Version | Text Only | Print | Product List | Glossary Off
Versions: 1 2 3 4 5 6 7 8 9 10 11 12 13 14 15 16 17 18 19 20 21 22 23 24 25 26 27 28 29 30 31 32 33 34 35 36 37 38 39 40 41 42 43 44 45 46 47 48 49 50

000
ASUS43 KLMK 220210
RWRKY
KENTUCKY REGIONAL WEATHER ROUNDUP
NATIONAL WEATHER SERVICE LOUISVILLE KY
1000 PM EDT FRI JUL 21 2017

NOTE "FAIR" INDICATES FEW OR NO CLOUDS BELOW 12,000 FEET
WITH NO SIGNIFICANT WEATHER AND/OR OBSTRUCTIONS TO VISIBILITY.

KYZ001>023-026-027-061>063-070>075-220300-
WESTERN AND SOUTH CENTRAL KENTUCKY

CITY           SKY/WX    TMP DP  RH WIND       PRES   REMARKS
PADUCAH        CLEAR     86  76  71 SW3       29.93R HX  96
HENDERSON      CLEAR     82  77  84 S7        29.93R HX  90
OWENSBORO      CLEAR     84  76  76 S3        29.93R HX  93
HOPKINSVILLE   CLEAR     85  77  75 S5        29.96R HX  96
BOWLING GREEN  CLEAR     88  76  67 S6        29.96R HX  99
GLASGOW        CLEAR     83  73  72 CALM      29.97R
$$

KYZ024-025-028>034-038-045-046-053-220300-
NORTH CENTRAL KENTUCKY

CITY           SKY/WX    TMP DP  RH WIND       PRES   REMARKS
LOUISVILLE/SDF PTCLDY    89  74  60 S6        29.94R HX  98
LOUISVILLE/LOU CLEAR     89  75  63 SW3       29.95R HX  99
FORT KNOX      CLEAR     82  75  80 S3        29.94R
$$

KYZ035>037-039>044-047>052-055>060-089>105-220300-
NORTHEAST KENTUCKY

CITY           SKY/WX    TMP DP  RH WIND       PRES   REMARKS
LEXINGTON      CLOUDY    84  72  67 CALM      29.99R
COVINGTON      CLOUDY    80  77  90 SE5       29.97F
FRANKFORT      CLEAR     81  74  79 S3        29.96R
$$

KYZ054-064>069-076>088-106>120-220300-
SOUTHEAST KENTUCKY

CITY           SKY/WX    TMP DP  RH WIND       PRES   REMARKS
JACKSON        CLEAR     82  71  69 CALM      30.03R
LONDON         CLEAR     82  72  71 CALM      30.02R
SOMERSET       CLOUDY    79  70  73 CALM      30.02R
MIDDLESBORO    CLEAR     79  73  82 CALM      30.03R
MONTICELLO     CLEAR     76  73  91 NE9       30.02R
$$





USA.gov is the U.S. government's official web portal to all federal, state and local government web resources and services.